Aérodrome :
LOGIN :

S'inscrire | Disclaimer

   EN    FR    IT 

 










Légende :    VFR   VFR Marginal   IFR   IFR Intensif   IFR Très Intensif
Visi : 
Plafond : 
>= 8 km
>= 3000ft
5 à 8 km
1000 à 3000 ft
1500m à 5 km
500 à 1000 ft
800 à 1500m
200 à 500 ft
< 800m
< 200 ft
Symboles :   Orages  Brouillard  Fortes neiges  Fortes précipitations  Vent > 20 kt
SIGMETs :   Divers  Orages  Givrage  Turbulence  Onde Orograph.  Cendres Volcan.







- Altitude de l'aérodrome : 1276 ft
- Code IATA : STR


EDDS - Stuttgart

DERNIER METAR :
  • 152220Z 15003KT 120V180 CAVOK M04/M07 Q1017

METARs EXPIRÉS :
  • 152150Z 12003KT 070V160 CAVOK M04/M07 Q1018
  • 152120Z 15004KT CAVOK M04/M07 Q1018
  • 152050Z 15004KT CAVOK M04/M07 Q1019 NOSIG
  • 152020Z 14004KT CAVOK M03/M07 Q1019 NOSIG
  • 151950Z 14004KT 9999 FEW020 M03/M07 Q1019 NOSIG

TAF TAF EDDS
Valide du 15 à 18h jusqu'au 16 à 18h UTC


151700Z 1518/1618 13005KT 9999 BKN025
TEMPO 1605/1609 2000 -SN BKN008
TEMPO 1609/1611 3000 -FZDZ BR BKN010
TEMPO 1611/1618 4000 BR BKN012
Pas de NOTAMs connus pour ce terrain.



MET'MAP, la Météo Aéronautique d'un coup d'oeil ! - Copyright ORBIFLY Décembre 2007 - Disclaimer

ORBIFLY MET'MAP TEAM :

Programmation & Développement : Alexandra Zaïnal
Conception & Développement : Baudouin d'Aumeries
Co-Programmation & Développement : Marc-Olivier Méhu
Soutien technique & logistique : Manuel Goepfert

Contact : metmap@orbifly.com




SOURCES & CREDITS :

   NOAA